Dewpoint
52 53 53 53 53 54 54 54 54 55 55 56 56 57 57 57 57 58 58 58 58 59 59 60 60 60 60 61 61 61 60 59 53 48 46 52 57 65 67 68 67 67 66 48 39 31 22 25 22 19 32 41 45 41 44 47 41 41 34 28 27 22 18 25 20 23 25 23 19 19 18 19 20 22 25 26 24 23 22 24 26 28 28 29 30 33 34 37
52 52 53 53 53 54 54 53 54 54 55 56 56 56 56 57 57 57 58 58 58 58 59 59 60 60 61 61 61 61 59 59 53 43 41 61 65 67 67 66 67 66 62 44 30 24 21 24 22 24 32 37 45 38 42 44 42 43 33 23 23 27 26 22 21 23 21 20 19 22 23 22 22 24 25 22 21 20 20 23 25 27 28 28 29 31 32 32
52 53 52 53 53 53 54 54 54 54 55 55 55 56 56 56 57 57 58 58 58 58 59 60 60 60 60 61 61 60 59 61 53 38 53 64 67 67 66 67 65 66 52 36 28 23 23 23 20 16 27 25 30 36 40 40 38 36 31 30 28 29 23 21 22 23 23 23 22 22 25 23 23 25 25 23 18 22 22 22 24 26 27 28 29 31 31 31
52 52 52 52 53 53 53 53 54 54 55 56 56 56 56 56 57 57 58 58 58 59 59 59 60 60 60 60 61 59 60 59 44 42 57 65 66 64 64 62 62 61 53 41 30 27 26 24 22 21 32 28 29 33 35 40 35 32 30 27 28 18 24 22 23 23 24 24 23 23 23 22 23 25 24 22 21 20 25 26 25 25 27 28 29 31 30 31
51 52 52 53 53 53 53 53 53 55 55 55 56 56 56 57 57 57 58 58 58 58 59 59 59 60 60 60 59 58 57 40 38 50 55 65 65 61 61 61 61 50 41 34 29 27 26 24 23 29 38 22 29 25 21 33 33 35 21 24 20 20 25 24 25 26 25 26 23 23 21 23 25 25 22 21 19 23 27 27 27 27 28 28 28 30 31 31
52 53 52 53 54 54 53 54 53 54 55 55 55 56 57 57 57 57 58 58 58 58 59 59 59 60 60 60 57 59 56 29 35 53 63 63 63 61 59 59 61 50 38 31 28 31 26 24 25 30 19 15 20 21 21 23 32 27 23 21 24 24 23 25 25 29 26 26 24 22 24 24 22 21 22 21 21 26 28 28 28 28 28 29 30 30 31 34
53 52 52 52 53 53 53 53 54 53 54 55 56 56 56 57 57 57 58 58 58 58 59 59 59 60 60 57 58 52 48 32 48 57 63 62 62 60 61 61 59 47 35 31 28 31 35 22 24 27 21 21 17 19 22 24 30 27 20 22 24 24 23 25 27 29 24 24 23 24 25 23 21 19 24 22 27 27 27 28 28 28 28 29 29 30 32 33
55 54 53 52 52 53 52 53 53 54 54 55 56 56 57 57 57 57 57 58 58 58 59 59 59 60 59 56 58 50 49 44 52 56 58 61 58 53 55 52 43 49 36 30 27 27 28 23 19 23 18 17 23 21 27 26 22 24 22 24 26 24 24 25 25 25 25 25 24 28 25 21 21 21 23 22 27 27 28 28 28 28 28 28 29 30 32 33
56 55 55 52 52 52 52 51 53 54 54 55 56 56 57 57 57 57 58 58 58 58 59 59 59 60 58 55 48 38 40 54 54 54 59 59 51 45 53 45 39 34 33 33 30 32 35 30 25 20 19 19 21 22 23 22 22 25 24 25 24 23 24 23 24 24 24 25 24 24 22 22 21 22 21 24 26 27 27 27 28 28 27 28 28 29 30 31
55 55 55 53 53 52 52 52 53 53 54 55 56 56 57 57 57 57 58 58 58 58 59 59 59 59 54 54 52 32 53 50 56 51 55 49 50 43 42 43 36 32 33 31 31 31 33 28 33 32 37 24 25 22 27 27 24 25 24 25 24 23 24 25 23 23 23 25 23 22 21 21 23 22 19 26 27 27 27 27 27 27 27 27 28 29 29 31
54 54 55 53 53 53 53 52 53 53 54 55 56 56 57 57 57 57 57 58 58 58 59 59 59 58 54 45 34 25 56 57 55 47 46 49 41 40 47 44 34 37 32 37 32 30 33 31 39 35 39 23 24 24 27 25 25 25 25 23 22 22 24 23 23 22 22 22 22 21 20 22 22 27 19 26 27 27 26 26 26 28 27 27 29 29 35 31
55 54 56 54 53 53 52 52 52 53 54 55 56 57 56 56 57 57 57 57 58 58 59 59 59 56 52 43 34 37 48 53 53 45 51 50 48 50 50 41 38 50 37 33 43 49 46 42 40 26 29 30 25 26 24 25 25 25 24 21 22 22 21 22 22 22 22 23 22 22 21 19 22 20 23 26 26 26 26 25 26 26 26 29 29 30 31 31
56 56 55 54 54 53 53 53 53 54 54 55 56 58 58 57 57 57 57 57 58 59 59 59 58 57 53 38 38 46 48 50 50 47 47 47 45 42 47 49 47 38 42 40 43 48 48 42 35 28 35 30 27 25 29 29 24 26 23 23 22 22 22 22 22 23 22 24 24 22 21 21 20 21 25 26 25 25 25 25 25 27 27 28 28 28 30 32
57 56 55 56 55 53 53 53 53 54 54 55 56 57 58 57 57 57 57 57 58 59 59 59 58 51 46 35 42 53 52 48 44 44 48 50 41 51 48 50 48 41 50 44 46 44 45 31 42 31 31 28 27 36 26 26 27 24 24 23 25 25 24 24 22 22 22 24 23 23 24 21 22 24 25 26 25 24 24 24 25 26 26 27 30 29 31 32
57 57 56 57 56 54 53 53 53 54 54 55 56 58 58 57 57 57 57 57 58 59 59 58 57 54 42 37 47 50 61 52 42 45 51 44 43 49 42 44 46 41 35 36 42 40 33 43 40 31 27 30 30 28 27 26 23 23 25 24 29 25 28 23 24 22 21 23 22 22 27 21 20 23 24 25 25 24 23 24 24 26 25 27 29 28 29 30
56 56 56 56 57 55 54 54 54 54 54 55 56 58 58 58 57 57 58 58 59 59 58 56 55 47 38 33 50 59 53 42 41 51 46 52 54 48 45 45 44 41 36 33 39 39 32 35 31 34 26 28 27 25 26 28 28 24 24 29 29 29 28 25 24 23 27 21 23 21 21 22 19 22 24 25 24 24 22 23 24 25 25 27 28 27 28 30
56 56 55 55 57 56 55 55 54 54 54 55 56 57 58 58 58 58 58 58 57 59 56 46 41 41 31 43 45 43 40 51 52 51 48 46 46 42 43 44 35 35 37 35 37 43 34 31 35 36 30 26 26 30 27 29 28 28 28 26 32 26 23 24 24 25 31 22 21 21 20 20 21 20 23 24 24 23 22 22 24 25 25 26 27 26 27 28
57 56 55 55 56 56 56 55 54 55 55 56 57 57 57 58 58 58 57 57 57 55 53 49 46 46 35 38 33 36 46 46 54 49 49 42 47 38 37 33 33 32 32 31 37 30 38 34 30 30 30 27 26 28 27 25 29 31 29 28 27 26 24 23 25 23 25 23 22 21 21 21 22 20 21 23 24 23 23 22 23 25 25 26 26 26 26 28
57 56 55 55 54 57 56 55 55 55 56 57 57 58 59 58 56 56 53 50 52 49 41 40 41 25 20 35 40 43 50 48 48 49 41 46 48 40 40 35 41 30 34 29 30 30 37 38 38 34 30 28 25 24 27 28 26 24 27 29 28 27 26 24 24 25 24 22 22 22 21 21 21 22 21 21 23 23 22 21 22 25 25 25 27 26 27 29
57 56 56 55 56 57 56 55 55 55 56 56 57 57 57 53 53 47 47 48 42 30 26 36 38 35 37 37 41 43 47 51 41 49 45 49 43 40 34 33 43 35 31 33 35 30 38 34 32 30 30 28 27 26 25 25 25 24 32 32 25 26 25 26 26 25 25 24 23 23 24 24 24 25 22 21 21 22 21 21 21 25 25 26 27 27 27 28
57 56 56 57 57 57 56 56 56 56 56 56 56 54 45 29 35 26 43 44 44 41 36 34 37 33 33 42 45 42 36 38 41 45 48 48 38 34 32 32 32 32 32 32 36 32 34 32 32 31 29 28 27 27 26 25 24 24 30 30 25 32 26 26 27 26 26 26 25 25 25 26 26 26 26 22 21 21 21 21 21 24 25 26 27 28 29 31
57 57 57 57 57 57 57 56 56 56 57 56 56 51 47 47 49 46 47 37 44 43 41 38 35 38 40 41 42 44 43 35 41 45 50 46 37 32 32 31 31 31 33 34 34 34 32 30 31 30 30 29 27 27 27 27 29 31 28 29 30 28 31 28 25 26 26 28 24 25 25 25 26 26 27 27 22 22 22 22 21 23 25 27 27 29 30 33
57 57 57 57 56 58 57 57 56 57 56 55 53 52 51 51 52 52 51 44 39 44 42 41 36 35 36 39 39 41 35 33 33 43 42 47 35 34 32 30 30 30 31 30 32 34 32 33 30 30 29 28 27 27 27 31 30 28 28 28 27 31 32 29 26 26 26 25 25 27 26 26 27 28 28 29 28 25 24 23 31 26 26 27 27 29 30 32
56 57 57 57 56 57 57 56 56 56 55 53 51 51 53 54 55 52 50 40 32 32 40 40 39 37 37 36 39 37 33 33 33 40 43 39 33 36 34 30 29 29 28 29 29 30 30 30 30 29 29 28 27 27 30 27 26 33 32 30 30 32 30 28 26 26 26 25 27 26 26 26 27 27 28 29 30 29 30 30 30 32 34 32 34 33 31 31
56 56 57 57 56 57 57 57 54 53 54 53 51 52 56 57 57 56 48 31 33 37 52 46 50 48 40 46 40 35 34 34 34 39 40 37 34 33 32 31 30 28 28 29 29 29 28 29 33 29 32 29 30 27 31 34 28 29 34 31 28 28 28 28 30 28 28 29 28 28 27 28 31 30 29 28 28 27 28 27 28 29 33 31 30 31 32 34
56 56 56 55 56 57 57 51 50 52 51 50 51 53 54 56 58 52 47 32 24 37 44 39 45 38 43 38 40 37 35 33 39 41 39 38 43 35 32 30 29 28 27 28 27 30 29 32 34 31 33 34 33 29 35 31 29 31 30 35 29 28 31 33 31 31 27 25 30 29 27 27 29 29 27 27 27 27 28 28 27 28 30 31 31 31 30 31
56 56 55 55 56 57 53 47 50 52 50 49 52 56 56 58 55 53 30 26 20 38 38 45 38 38 51 38 37 35 30 32 44 40 40 47 35 38 29 29 30 30 30 32 31 29 28 28 33 34 31 35 33 29 33 29 31 29 38 38 32 30 33 33 33 33 30 32 34 29 31 27 28 29 31 28 27 27 27 27 28 27 28 30 30 30 30 31
56 56 55 56 56 57 51 49 50 50 47 55 53 56 57 55 54 51 37 20 15 40 37 38 39 45 45 38 39 32 34 37 36 37 37 45 37 34 32 28 28 29 29 32 27 38 31 33 35 35 34 32 31 32 37 32 31 34 37 38 35 32 36 36 33 32 32 30 29 29 32 27 28 29 30 30 24 24 25 26 27 27 27 29 30 30 30 30
56 56 55 55 56 57 55 53 50 49 53 55 55 56 56 54 52 39 28 15 41 35 47 35 47 42 38 39 36 34 35 34 32 35 44 38 40 35 30 31 30 29 29 30 28 38 34 36 33 33 33 30 33 35 38 36 31 39 38 37 37 37 35 35 31 30 30 28 29 29 31 27 27 30 29 30 28 25 24 25 25 26 27 28 29 29 30 30
56 56 55 55 56 56 55 55 54 55 54 56 57 56 54 49 43 28 28 18 39 30 35 38 37 37 38 36 36 34 33 34 35 36 36 34 38 42 34 38 33 32 36 30 32 36 34 32 35 33 34 34 32 33 37 36 35 38 38 36 34 33 32 31 31 29 27 28 29 31 31 29 27 30 29 30 29 27 27 26 26 27 28 28 28 29 29 29
56 56 55 55 54 53 54 52 53 55 55 55 56 53 49 47 34 17 20 21 26 40 34 34 35 38 36 35 35 34 34 34 34 34 33 34 33 33 33 33 37 34 31 33 32 35 32 33 36 36 33 33 33 35 36 37 37 37 33 32 32 30 29 27 27 28 26 26 27 30 30 29 27 27 30 30 24 26 26 25 26 26 26 27 28 28 28 29
56 56 56 55 54 55 52 50 54 54 54 54 53 49 41 32 35 21 15 12 23 29 33 33 36 36 35 35 36 34 33 33 34 33 32 32 33 31 31 31 32 29 29 30 30 33 33 33 36 37 38 33 36 34 31 36 35 34 32 31 29 27 26 25 26 24 25 25 22 26 30 29 28 28 28 25 24 24 25 25 25 26 26 27 28 28 28 30
56 56 55 54 54 55 54 57 55 53 53 53 50 47 35 28 23 29 21 16 15 37 36 37 35 35 35 35 34 35 37 32 33 33 34 36 33 33 34 32 35 31 27 32 30 31 33 35 35 37 35 33 34 30 30 29 30 31 30 30 28 26 25 22 25 25 25 25 24 23 30 28 29 27 30 30 27 25 27 28 27 26 26 27 27 27 28 29
56 56 55 54 54 55 55 55 53 53 53 51 47 43 37 24 20 31 24 21 29 35 34 37 36 35 35 33 37 36 33 34 33 33 33 34 33 32 33 33 33 34 35 32 30 31 29 29 34 35 32 34 32 31 32 32 30 29 33 32 30 29 25 22 26 24 24 25 22 25 25 26 24 27 25 23 24 25 26 27 29 28 28 28 28 28 29 28
56 56 56 55 55 56 55 54 52 52 51 49 46 38 29 23 22 19 23 21 31 33 36 36 35 36 35 37 37 35 37 35 34 34 34 34 32 32 32 32 33 34 36 30 33 30 31 30 35 36 37 32 32 34 33 35 31 31 33 34 30 30 29 27 26 24 22 23 21 20 25 25 25 26 26 25 25 25 26 27 28 27 27 28 27 27 28 28
55 55 56 54 54 55 57 55 53 52 50 47 42 36 29 24 20 22 24 22 30 36 34 35 38 35 34 35 37 36 39 36 34 34 34 34 34 33 35 35 33 33 34 30 33 30 30 30 37 36 33 31 33 34 33 35 29 31 32 30 31 34 32 29 26 25 22 23 26 24 23 25 24 24 24 24 23 24 25 25 26 26 27 27 27 28 28 28
53 55 52 53 53 55 57 56 53 51 51 46 40 34 36 28 26 26 28 22 31 34 35 31 35 34 34 34 34 35 36 38 34 34 31 36 33 34 35 35 35 33 34 33 33 36 31 33 35 35 33 31 33 36 36 36 37 32 28 32 35 36 34 29 26 25 25 25 26 25 25 24 23 24 24 23 23 23 24 24 25 27 28 26 28 28 28 28
53 53 52 52 53 55 57 56 53 52 49 43 38 36 37 30 29 24 27 24 33 34 33 28 34 35 34 35 34 34 36 33 33 34 33 33 32 36 34 35 35 34 34 35 32 36 36 29 33 35 35 34 34 35 33 35 38 32 32 37 30 27 26 27 27 25 23 24 25 24 24 25 25 25 21 22 22 22 23 24 24 26 27 27 28 28 28 28
53 52 48 52 55 56 57 55 52 49 45 40 38 37 36 33 30 29 23 23 35 33 29 30 27 36 33 34 35 34 34 31 34 32 32 33 30 35 34 35 36 35 34 35 33 35 35 30 30 33 33 34 33 33 29 30 35 35 35 32 35 30 28 28 28 26 26 25 21 24 25 25 28 25 22 22 22 22 22 24 24 25 26 27 27 28 28 28
51 48 46 53 56 56 56 54 50 47 42 37 39 39 40 35 33 32 26 23 29 31 31 30 30 29 33 32 36 33 35 33 33 33 32 35 32 37 34 36 35 36 35 35 35 38 31 33 29 29 33 32 27 31 30 30 30 29 28 27 30 28 31 29 27 26 26 23 24 24 23 25 27 26 23 22 22 22 22 24 25 25 26 27 28 28 28 28
52 48 48 55 56 56 56 51 45 41 40 42 42 40 40 36 35 33 31 25 30 34 32 32 29 26 30 31 31 35 34 34 34 33 33 34 32 30 36 35 38 35 35 35 35 35 31 30 29 28 28 28 29 32 31 32 31 30 30 29 30 29 27 24 25 27 27 26 24 22 23 26 30 24 24 23 23 23 24 24 25 25 25 27 28 28 28 28
49 42 47 55 56 55 51 43 42 45 42 39 39 42 40 41 38 35 33 31 32 30 31 32 32 31 30 29 31 36 35 33 34 34 34 31 34 32 37 36 35 36 34 33 33 36 34 33 31 28 29 29 30 31 30 30 33 32 31 30 31 30 29 28 25 26 25 27 26 27 24 25 26 26 25 24 25 23 24 26 25 26 26 26 28 28 28 28
47 45 54 55 56 54 48 42 43 42 41 42 43 43 46 42 38 37 33 31 31 30 33 34 31 33 32 31 32 35 35 34 34 34 35 34 33 33 39 36 37 35 34 34 38 36 36 31 31 31 34 34 31 34 34 31 32 31 31 32 32 30 30 29 28 27 27 26 25 25 23 25 26 31 27 25 26 26 25 26 25 25 26 26 28 29 28 28
47 47 49 55 56 53 46 37 37 39 41 42 42 42 44 45 41 38 35 32 31 31 29 31 34 30 32 34 32 33 36 31 36 35 34 36 34 34 38 35 35 35 34 34 32 36 33 30 32 31 30 29 29 31 30 31 31 29 29 30 32 32 31 30 28 26 25 27 27 26 23 25 29 28 27 25 23 24 26 26 26 26 27 27 28 29 29 29
47 47 49 51 54 52 43 44 40 38 39 39 40 40 41 42 43 43 38 35 34 31 33 30 30 34 32 34 34 34 38 34 31 37 35 36 36 41 37 39 35 35 35 39 38 37 34 33 31 29 28 26 26 26 27 28 28 29 31 30 31 31 31 29 28 28 26 28 28 26 25 28 25 25 24 25 24 23 24 26 27 28 28 28 29 29 29 29
44 38 45 47 49 49 48 48 45 41 38 39 39 39 40 40 42 43 44 43 38 36 33 36 36 35 35 33 31 33 33 36 35 32 36 34 39 36 38 36 35 36 38 39 38 36 32 33 34 32 30 29 30 30 31 31 28 27 28 29 30 31 31 31 30 28 27 27 28 28 28 28 28 24 24 24 24 22 23 24 27 29 29 30 30 30 30 30
45 41 40 39 46 46 45 46 44 43 39 41 36 38 38 39 40 42 44 42 43 41 38 36 38 36 35 34 32 31 33 34 37 35 35 35 38 37 38 40 36 37 39 38 37 33 31 32 33 33 33 33 33 33 36 31 29 29 29 28 30 30 31 31 29 28 29 27 26 29 30 29 28 26 26 26 26 25 24 24 25 27 29 30 30 30 32 29
39 41 44 46 41 37 40 41 44 43 42 42 39 40 38 38 39 38 43 43 43 43 42 39 38 38 36 35 33 31 31 33 34 33 35 35 35 36 33 37 35 38 37 37 38 33 31 30 33 33 33 33 33 33 33 33 31 30 30 30 29 30 30 30 30 30 29 28 26 28 30 29 29 29 26 25 25 24 24 24 25 27 29 30 30 30 29 29
44 42 43 46 40 40 42 42 42 43 42 41 40 40 38 38 37 39 40 42 42 42 42 37 38 38 38 37 35 33 34 32 32 34 33 33 34 33 31 35 36 37 36 35 35 34 31 30 32 33 32 33 33 34 34 33 33 32 32 31 30 30 29 30 30 30 30 29 30 29 29 30 30 30 29 26 27 26 26 27 26 27 28 29 29 29 29 28
41 41 37 42 41 40 41 41 41 41 39 41 38 38 38 38 37 39 40 41 39 40 43 40 39 39 39 39 37 34 35 35 33 32 35 34 34 35 33 34 33 34 33 33 34 34 32 30 33 33 32 32 34 34 34 34 33 32 32 32 32 31 30 30 30 30 30 30 30 30 29 29 30 31 29 28 28 29 27 25 25 26 28 28 29 29 28 28
43 42 45 41 38 39 39 39 39 39 36 38 38 38 38 38 38 39 39 41 41 39 41 40 41 40 40 39 39 38 38 37 37 36 36 37 34 37 34 34 35 33 33 32 31 32 33 31 34 32 31 31 33 33 33 33 33 32 32 32 32 31 30 30 30 30 29 29 29 30 29 29 30 32 30 28 28 27 26 25 26 28 28 28 28 28 28 28
44 45 44 43 37 40 38 37 38 39 34 37 38 38 38 38 39 41 39 41 42 42 42 42 41 42 39 40 39 39 40 40 40 41 40 41 40 39 38 38 35 34 32 32 34 33 34 32 32 32 30 30 33 32 32 32 32 31 31 32 32 32 32 32 31 31 30 30 29 29 29 30 30 31 28 28 28 27 27 26 27 28 27 27 27 27 27 28